| time (UTC) | temp F | wind direction | speed MPH | gust MPH | rain 1hr in | rain 24hr in | rain mn in | humidity % | barometer mb |
| 20260505183042 | 78 | 258 | 1.0 | 5.0 | 0.00 | 0.00 | 0.00 | 78 | 1008.7 |
| 20260505181503 | 77 | 114 | 1.0 | 9.0 | 0.00 | 0.00 | 0.00 | 79 | 1008.9 |
| 20260505180004 | 76 | 266 | 2.0 | 10.0 | 0.00 | 0.00 | 0.00 | 80 | 1009.1 |
| 20260505174504 | 77 | 248 | 2.0 | 8.0 | 0.00 | 0.00 | 0.00 | 80 | 1009.3 |
| 20260505173004 | 76 | 225 | 1.0 | 6.0 | 0.00 | 0.00 | 0.00 | 84 | 1009.3 |
| 20260505171507 | 75 | 219 | 0.0 | 6.0 | 0.00 | 0.00 | 0.00 | 83 | 1009.4 |
| 20260505170008 | 75 | 172 | 1.0 | 7.0 | 0.00 | 0.00 | 0.00 | 85 | 1009.5 |
| 20260505164503 | 74 | 250 | 1.0 | 7.0 | 0.00 | 0.00 | 0.00 | 85 | 1009.5 |
| 20260505163009 | 73 | 287 | 1.0 | 8.0 | 0.00 | 0.00 | 0.00 | 86 | 1009.5 |
| 20260505161508 | 72 | 270 | 1.0 | 8.0 | 0.00 | 0.00 | 0.00 | 87 | 1009.4 |
| 20260505153012 | 72 | 21 | 2.0 | 7.0 | 0.00 | 0.00 | 0.00 | 87 | 1009.6 |
| 20260505151506 | 72 | 212 | 2.0 | 7.0 | 0.00 | 0.00 | 0.00 | 87 | 1009.4 |
| 20260505124515 | 70 | 202 | 1.0 | 5.0 | 0.00 | 0.00 | 0.00 | 88 | 1008.2 |
| 20260505123019 | 70 | 128 | 1.0 | 7.0 | 0.00 | 0.00 | 0.00 | 88 | 1007.9 |
| 20260505121526 | 70 | 169 | 1.0 | 5.0 | 0.00 | 0.00 | 0.00 | 88 | 1007.7 |
| 20260505120033 | 70 | 223 | 1.0 | 7.0 | 0.00 | 0.00 | 0.00 | 88 | 1007.5 |
| 20260505114515 | 70 | 131 | 1.0 | 8.0 | 0.00 | 0.00 | 0.00 | 88 | 1007.5 |
| 20260505113020 | 70 | 122 | 1.0 | 8.0 | 0.00 | 0.00 | 0.00 | 87 | 1007.7 |
| 20260505111521 | 70 | 297 | 2.0 | 9.0 | 0.00 | 0.00 | 0.00 | 87 | 1007.5 |
| 20260505101524 | 70 | 175 | 2.0 | 9.0 | 0.00 | 0.00 | 0.00 | 86 | 1008.1 |
| 20260505100027 | 70 | 325 | 0.0 | 4.0 | 0.00 | 0.00 | 0.00 | 86 | 1008.1 |
| 20260505094524 | 70 | 254 | 0.0 | 5.0 | 0.00 | 0.00 | 0.00 | 86 | 1007.9 |
| 20260505093014 | 70 | 28 | 2.0 | 8.0 | 0.00 | 0.00 | 0.00 | 86 | 1008.1 |
| 20260505091513 | 70 | 136 | 1.0 | 4.0 | 0.00 | 0.00 | 0.00 | 86 | 1008.1 |
| 20260505090012 | 70 | 95 | 2.0 | 8.0 | 0.00 | 0.00 | 0.00 | 87 | 1008.2 |
| 20260505084507 | 70 | 203 | 1.0 | 8.0 | 0.00 | 0.00 | 0.00 | 86 | 1008.2 |
| 20260505083014 | 70 | 202 | 2.0 | 7.0 | 0.00 | 0.00 | 0.00 | 86 | 1008.4 |
| 20260505081518 | 70 | 194 | 1.0 | 7.0 | 0.00 | 0.00 | 0.00 | 86 | 1008.6 |
| 20260505080003 | 70 | 262 | 1.0 | 11.0 | 0.00 | 0.00 | 0.00 | 85 | 1008.6 |
| 20260505074505 | 70 | 332 | 3.0 | 10.0 | 0.00 | 0.00 | 0.00 | 85 | 1008.9 |
| 20260505073024 | 70 | 105 | 1.0 | 8.0 | 0.00 | 0.00 | 0.00 | 85 | 1008.9 |
| 20260505071519 | 70 | 294 | 2.0 | 11.0 | 0.00 | 0.00 | 0.00 | 85 | 1009.1 |
| 20260505070022 | 70 | 206 | 1.0 | 9.0 | 0.00 | 0.00 | 0.00 | 85 | 1009.2 |
| 20260505064516 | 70 | 59 | 1.0 | 7.0 | 0.00 | 0.00 | 0.00 | 85 | 1009.4 |
| 20260505063010 | 71 | 209 | 1.0 | 8.0 | 0.00 | 0.00 | 0.00 | 84 | 1009.6 |
| 20260505061528 | 71 | 304 | 2.0 | 10.0 | 0.00 | 0.00 | 0.00 | 84 | 1009.7 |
| 20260505060019 | 71 | 96 | 1.0 | 4.0 | 0.00 | 0.00 | 0.00 | 84 | 1009.8 |
| 20260505054539 | 71 | 31 | 1.0 | 5.0 | 0.00 | 0.00 | 0.00 | 84 | 1009.7 |
| 20260505053005 | 71 | 19 | 1.0 | 5.0 | 0.00 | 0.00 | 0.00 | 84 | 1009.7 |
| 20260505051528 | 71 | 306 | 1.0 | 9.0 | 0.00 | 0.00 | 0.00 | 84 | 1009.7 |
| 20260505041512 | 72 | 133 | 1.0 | 9.0 | 0.00 | 0.00 | 0.00 | 82 | 1009.5 |
| 20260505040016 | 72 | 151 | 1.0 | 6.0 | 0.00 | 0.00 | 0.00 | 82 | 1009.5 |
| 20260505034519 | 72 | 148 | 1.0 | 5.0 | 0.00 | 0.00 | 0.00 | 81 | 1009.5 |
| 20260505033024 | 72 | 214 | 1.0 | 8.0 | 0.00 | 0.00 | 0.00 | 81 | 1009.4 |
| 20260505031540 | 73 | 111 | 1.0 | 6.0 | 0.00 | 0.00 | 0.00 | 80 | 1009.4 |
| 20260505030014 | 73 | 195 | 0.0 | 5.0 | 0.00 | 0.00 | 0.00 | 79 | 1009.5 |
| 20260505024531 | 73 | 342 | 1.0 | 6.0 | 0.00 | 0.00 | 0.00 | 78 | 1009.4 |
| 20260505023027 | 74 | 145 | 0.0 | 5.0 | 0.00 | 0.00 | 0.00 | 77 | 1009.3 |
| 20260505021527 | 74 | 216 | 0.0 | 5.0 | 0.00 | 0.00 | 0.00 | 76 | 1009.3 |
| 20260505020031 | 74 | 315 | 1.0 | 4.0 | 0.00 | 0.00 | 0.00 | 74 | 1009.2 |
| 20260505014523 | 74 | 262 | 0.0 | 4.0 | 0.00 | 0.00 | 0.00 | 74 | 1009.2 |
| 20260505013004 | 74 | 123 | 0.0 | 2.0 | 0.00 | 0.00 | 0.00 | 72 | 1009.3 |
| 20260505011504 | 75 | 154 | 0.0 | 4.0 | 0.00 | 0.00 | 0.00 | 70 | 1009.2 |
| 20260505010028 | 76 | 244 | 1.0 | 6.0 | 0.00 | 0.00 | 0.00 | 1009.2 | |
| 20260505004524 | 77 | 282 | 0.0 | 8.0 | 0.00 | 0.00 | 0.00 | 67 | 1009.3 |
| 20260505003031 | 77 | 314 | 1.0 | 11.0 | 0.00 | 0.00 | 0.00 | 67 | 1009.2 |
| 20260505001504 | 77 | 258 | 1.0 | 8.0 | 0.00 | 0.00 | 0.00 | 66 | 1009.0 |
| 20260505000009 | 78 | 275 | 2.0 | 7.0 | 0.00 | 0.00 | 0.00 | 66 | 1009.1 |
| 20260504234526 | 79 | 208 | 3.0 | 9.0 | 0.00 | 0.00 | 0.00 | 65 | 1009.3 |
| 20260504233016 | 79 | 86 | 2.0 | 8.0 | 0.00 | 0.00 | 0.00 | 63 | 1009.5 |
| 20260504231522 | 79 | 240 | 2.0 | 9.0 | 0.00 | 0.00 | 0.00 | 64 | 1009.5 |
| 20260504230002 | 81 | 78 | 2.0 | 11.0 | 0.00 | 0.00 | 0.00 | 60 | 1009.5 |
| 20260504224509 | 82 | 173 | 3.0 | 11.0 | 0.00 | 0.00 | 0.00 | 60 | 1009.8 |
| 20260504223015 | 81 | 243 | 2.0 | 8.0 | 0.00 | 0.00 | 0.00 | 60 | 1009.8 |
| 20260504221519 | 82 | 25 | 1.0 | 10.0 | 0.00 | 0.00 | 0.00 | 62 | 1009.9 |
| 20260504220024 | 82 | 208 | 1.0 | 9.0 | 0.00 | 0.00 | 0.00 | 63 | 1009.9 |
| 20260504214505 | 82 | 300 | 1.0 | 7.0 | 0.00 | 0.00 | 0.00 | 64 | 1009.9 |
| 20260504213012 | 81 | 96 | 2.0 | 9.0 | 0.00 | 0.00 | 0.00 | 64 | 1010.3 |
| 20260504211530 | 80 | 103 | 1.0 | 5.0 | 0.00 | 0.00 | 0.00 | 63 | 1010.6 |
| 20260504210024 | 82 | 205 | 1.0 | 8.0 | 0.00 | 0.00 | 0.00 | 64 | 1011.0 |
| 20260504204526 | 80 | 236 | 1.0 | 8.0 | 0.00 | 0.00 | 0.00 | 68 | 1011.2 |
| 20260504203010 | 79 | 86 | 1.0 | 7.0 | 0.00 | 0.00 | 0.00 | 65 | 1011.4 |
| 20260504201516 | 81 | 75 | 2.0 | 13.0 | 0.00 | 0.00 | 0.00 | 63 | 1011.7 |
| 20260504200019 | 81 | 180 | 2.0 | 8.0 | 0.00 | 0.00 | 0.00 | 63 | 1011.8 |
| 20260504194525 | 80 | 230 | 2.0 | 13.0 | 0.00 | 0.00 | 0.00 | 64 | 1012.3 |
| 20260504193010 | 81 | 259 | 2.0 | 8.0 | 0.00 | 0.00 | 0.00 | 61 | 1012.4 |
| 20260504191511 | 79 | 255 | 3.0 | 9.0 | 0.00 | 0.00 | 0.00 | 68 | 1012.7 |
| 20260504190003 | 80 | 257 | 2.0 | 9.0 | 0.00 | 0.00 | 0.00 | 63 | 1013.0 |
| 20260504184504 | 79 | 140 | 3.0 | 13.0 | 0.00 | 0.00 | 0.00 | 62 | 1012.9 |